This is the latest recevied weather packets stored in our database for station/object K1BES. If no packets are shown the sender has not sent any weather packets the latest 10 day(s).
| Time | Temp. | Humidity | Pressure | Rain* | Wind** | Luminosity | Snow |
|---|---|---|---|---|---|---|---|
| 1787423497 | 34.44° C | 64% | 1019.2 hPa | 0 mm | - | 421 W/m² | - |
| 1787423193 | 34.44° C | 63% | 1019 hPa | 0 mm | - | 1045 W/m² | - |
| 1787422889 | 34.44° C | 62% | 1019 hPa | 0 mm | - | 1055 W/m² | - |
| 1787422585 | 34.44° C | 63% | 1019.3 hPa | 0 mm | - | 1074 W/m² | - |
| 1787422280 | 34.44° C | 64% | 1019.1 hPa | 0 mm | - | 1036 W/m² | - |
| 1787421976 | 34.44° C | 63% | 1019 hPa | 0 mm | - | 1032 W/m² | - |
| 1787421673 | 33.89° C | 64% | 1019.4 hPa | 0 mm | - | 1028 W/m² | - |
| 1787421368 | 33.89° C | 64% | 1019.3 hPa | 0 mm | - | 1029 W/m² | - |
| 1787421063 | 33.89° C | 64% | 1019.4 hPa | 0 mm | - | 943 W/m² | - |
| 1787420758 | 33.89° C | 65% | 1019.3 hPa | 0 mm | - | 1030 W/m² | - |
| 1787420454 | 34.44° C | 63% | 1019.2 hPa | 0 mm | - | 1023 W/m² | - |
| 1787420150 | 34.44° C | 63% | 1019.6 hPa | 0 mm | - | 1020 W/m² | - |
| 1787419846 | 34.44° C | 63% | 1019.7 hPa | 0 mm | - | 1024 W/m² | - |
| 1787419543 | 33.89° C | 65% | 1019.5 hPa | 0 mm | - | 1022 W/m² | - |
| 1787419238 | 33.89° C | 64% | 1019.4 hPa | 0 mm | - | 1021 W/m² | - |
| 1787418933 | 33.89° C | 66% | 1019.6 hPa | 0 mm | - | 571 W/m² | - |
| 1787418629 | 33.89° C | 63% | 1019.5 hPa | 0 mm | - | 1016 W/m² | - |
| 1787418325 | 34.44° C | 62% | 1019.5 hPa | 0 mm | - | 1012 W/m² | - |
| 1787418022 | 34.44° C | 62% | 1019.5 hPa | 0 mm | - | 1021 W/m² | - |
| 1787417716 | 33.89° C | 65% | 1019.4 hPa | 0 mm | - | 1011 W/m² | - |
| 1787417416 | 33.89° C | 63% | 1019.3 hPa | 0 mm | - | 992 W/m² | - |
| 1787417112 | 33.89° C | 64% | 1019.6 hPa | 0 mm | - | 939 W/m² | - |
| 1787416808 | 33.89° C | 65% | 1019.5 hPa | 0 mm | - | 985 W/m² | - |
| 1787416504 | 33.89° C | 65% | 1019.6 hPa | 0 mm | - | 982 W/m² | - |
| 1787416203 | 33.33° C | 65% | 1019.8 hPa | 0 mm | - | 973 W/m² | - |
* Rain latest hour (hover to see other rain measurements)
** Current wind speed in m/s (hover to see current wind gust speed)